THORAD AGENA D DEB, 4311

Orbit data source: Space-Track

THORAD AGENA D DEB, 4311 is space debris in LEO originally from a launch on Tue, 30 Sep 1969 UTC launched from the Air Force Western Test Range (AFWTR). Debris objects in space refer to the collection of defunct objects orbiting the Earth. Examples of debris include non-operational satellites, rocket bodies, and fragments generated from explosions, collisions, or faulty payload assembly.

Loading next visibility...
Identifier
4311, 1969-082DR
Orbit
LEO
Country
Flag of USUS
Related business
Manufacturer
Unknown
Mission
Spacecraft
Bus & Motor
Unknown
Mass
Unknown
Launch date (UTC)
1969-09-30 (57 years ago)
Launch vehicle
Unknown
Launch site
Air Force Western Test Range (AFWTR)
Object type
Payload
Rocket body
Debris
Shape & HBR
Unknown shape, 0.1 m
Radar Cross Section
Small (<0.1 m²)

Expand to show TLE details & history
Last TLE update: 16 hours ago

TLE from 16 hours ago
0 THORAD AGENA D DEB
1 04311U 69082DR  26093.70281610  .00009660  00000-0  13691-2 0  9992
2 04311  70.3312 215.9795 0047517 124.3134 236.2528 14.76472099966454
Epoch: 2026-04-03T16:52Z
TLE epoch observation values (Epoch: 2026-04-03T16:52:03.311Z)
Latitude
0.00003°
Longitude
130.93257°
Altitude
661.545 km
Speed
7.517 km/s
True Right ascension
14h 23m 55s
True Declination
0° 00' 00"
Sunlit
Object was in full shadow at epoch
Visualization orbit readout
Latitude
Unknown
Longitude
Unknown
Altitude
Unknown
Speed
Unknown
Apparent Right ascension
Unknown
Apparent Declination
Unknown
Sunlit
N/A
Visualization observer readout
Local Sidereal Time
14:28:31
Azimuth
Unknown
Elevation
Unknown
Doppler factor
Unknown
Orbital elements
Apogee altitude
671.756 km
Perigee altitude
605.075 km
Semi-major axis
7,016.553 km
Eccentricity
0.00475
Inclination
70.3312°
RAAN
215.9795°
Arg. of periapsis
124.3134°
True anomaly
235.80154°
Mean anomaly
236.2528°
Eccentric anomaly
236.02702°
Mean motion
3.69281 °/min
Orbital period
97.49 mins
BSTAR
0.0013691
Loading maneuver chart data...
Computing Atmospheric mass density...

Documentation

Showing up to 5 results
|